Погода в Нежадове

Россия / Псковская область     58°34′11″N   29°18′14″E
темп.,
°C
ветер,
м/с
пор.,
м/с
влажн.,
%
обл.,
%
осадки,
мм/ч
давл.,
гПа
погр.,
м
5 марта, пт
пт500:00−4зсз36835 0.0 1007327
03:00−5зсз268830 0.0 1008231
06:00−4сз267977 0.0 1008597
09:00−5ссз467381 0.0 1010825
12:00−4сз3566100 0.0 1012884
15:00−2сз465698 0.0 10141137
18:00−3сз365657 0.0 10151139
21:00−4сз376943 0.0 1016764
6 марта, сб
сб600:00−5сз378059 0.0 1018529
03:00−6зсз259065 0.0 1019266
06:00−6зсз37890 0.0 1018292
09:00−6з37820 0.0 1018410
12:00−2зюз58590 0.0 1016922
15:00−1юз6125850 0.0 10121204
18:00−2зюз81687100 0.6 10071433
21:00−1зюз81874100 1.2 10021449
7 марта, вс
вс700:00−1зюз81788100 0.6 9971229
03:00−2зсз51378100 3.7 9941557
06:00−5зсз81572100 0.8 9931659
09:00−6зсз6145884 2.5 9942041
12:00−4з8158082 0.7 9931604
15:00−3зсз6126791 2.2 9921760
18:00−5сз4881100 1.4 993908
21:00−9сз4117690 2.5 997726
8 марта, пн
пн800:00−8ссз51087100 0.1 10001079
03:00−8ссз41089100 0.1 1003746
06:00−10ссз51087100 0.1 1005710
09:00−11ссз5985100 0.1 1008684
12:00−10ссз5878100 0.1 1010748
15:00−9ссз5875100 0.1 1012789
18:00−10ссз4882100 0.0 1014651
21:00−12ссз4108988 0.0 1016480
9 марта, вт
вт900:00−14сз25933 0.0 1018191
03:00−13з248743 0.0 1017158
06:00−11ююз2493100 0.1 1016199
09:00−9ююз3893100 2.0 1014449
12:00−4з4891100 1.9 1013668
15:00−2зсз61181100 2.8 10121044
18:00−6св3695100 1.9 1012336
21:00−8всв3794100 3.2 1014397